Time,TemperatureF,DewpointF,PressureIn,WindDirection,WindDirectionDegrees,WindSpeedMPH,WindSpeedGustMPH,Humidity,HourlyPrecipIn,Conditions,Clouds,dailyrainin,SoftwareType,DateUTC
2013-10-19 00:00:00,38.2,35.0,30.17,SSW,192,3.0,10.0,88,0.00,,---,0.00,VWS V14.01,2013-10-19 05:00:00,
2013-10-19 00:01:00,38.2,35.0,30.16,SSW,206,5.0,7.0,88,0.00,,---,0.00,VWS V14.01,2013-10-19 05:01:00,
2013-10-19 00:06:00,38.2,35.0,30.16,South,184,0.0,7.0,88,0.00,,---,0.00,VWS V14.01,2013-10-19 05:06:00,
2013-10-19 00:10:00,38.1,34.9,30.16,South,184,1.0,7.0,88,0.00,,---,0.00,VWS V14.01,2013-10-19 05:10:00,
2013-10-19 00:11:00,38.1,34.9,30.16,South,189,3.0,7.0,88,0.00,,---,0.00,VWS V14.01,2013-10-19 05:11:00,
2013-10-19 00:16:00,38.1,34.9,30.16,South,184,3.0,7.0,88,0.00,,---,0.00,VWS V14.01,2013-10-19 05:16:00,
2013-10-19 00:20:00,38.0,34.8,30.15,South,184,0.0,7.0,88,0.00,,---,0.00,VWS V14.01,2013-10-19 05:20:00,
2013-10-19 00:21:00,38.0,34.8,30.15,South,188,3.0,4.0,88,0.00,,---,0.00,VWS V14.01,2013-10-19 05:21:00,
2013-10-19 00:26:00,37.9,34.7,30.15,South,177,1.0,5.0,88,0.00,,---,0.00,VWS V14.01,2013-10-19 05:26:00,
2013-10-19 00:30:00,37.8,34.6,30.15,SSW,192,4.0,6.0,88,0.00,,---,0.00,VWS V14.01,2013-10-19 05:30:00,
2013-10-19 00:31:00,37.8,34.6,30.15,South,184,3.0,5.0,88,0.00,,---,0.00,VWS V14.01,2013-10-19 05:31:00,
2013-10-19 00:36:00,37.7,34.5,30.15,South,185,3.0,5.0,88,0.00,,---,0.00,VWS V14.01,2013-10-19 05:36:00,
2013-10-19 00:40:00,37.7,34.5,30.15,SSW,193,0.0,11.0,88,0.00,,---,0.00,VWS V14.01,2013-10-19 05:40:00,
2013-10-19 00:41:00,37.6,34.4,30.14,SSW,193,0.0,2.0,88,0.00,,---,0.00,VWS V14.01,2013-10-19 05:41:00,
2013-10-19 00:46:00,37.6,34.4,30.14,SSW,200,2.0,7.0,88,0.00,,---,0.00,VWS V14.01,2013-10-19 05:46:00,
2013-10-19 00:50:00,37.5,34.3,30.14,SSW,200,1.0,7.0,88,0.00,,---,0.00,VWS V14.01,2013-10-19 05:50:00,
2013-10-19 00:51:00,37.5,34.3,30.14,South,180,2.0,6.0,88,0.00,,---,0.00,VWS V14.01,2013-10-19 05:51:00,
2013-10-19 00:56:00,37.4,34.5,30.14,South,181,1.0,6.0,89,0.00,,---,0.00,VWS V14.01,2013-10-19 05:56:00,
2013-10-19 01:00:00,37.3,34.4,30.14,South,180,1.0,6.0,89,0.00,,---,0.00,VWS V14.01,2013-10-19 06:00:00,
2013-10-19 01:01:00,37.3,34.4,30.14,South,180,0.0,2.0,89,0.00,,---,0.00,VWS V14.01,2013-10-19 06:01:00,
2013-10-19 01:06:00,37.3,34.4,30.14,SSW,211,0.0,6.0,89,0.00,,---,0.00,VWS V14.01,2013-10-19 06:06:00,
2013-10-19 01:10:00,37.3,34.4,30.14,South,185,1.0,6.0,89,0.00,,---,0.00,VWS V14.01,2013-10-19 06:10:00,
2013-10-19 01:11:00,37.3,34.4,30.14,South,184,2.0,2.0,89,0.00,,---,0.00,VWS V14.01,2013-10-19 06:11:00,
2013-10-19 01:16:00,37.3,34.4,30.14,SSE,165,0.0,4.0,89,0.00,,---,0.00,VWS V14.01,2013-10-19 06:16:00,
2013-10-19 01:20:00,37.3,34.4,30.14,SSE,160,1.0,7.0,89,0.00,,---,0.00,VWS V14.01,2013-10-19 06:20:00,
2013-10-19 01:21:00,37.2,34.3,30.14,SSW,200,1.0,2.0,89,0.00,,---,0.00,VWS V14.01,2013-10-19 06:21:00,
2013-10-19 01:26:00,37.2,34.3,30.13,SSW,213,0.0,8.0,89,0.00,,---,0.00,VWS V14.01,2013-10-19 06:26:00,
2013-10-19 01:30:00,37.2,34.3,30.14,West,267,3.0,8.0,89,0.00,,---,0.00,VWS V14.01,2013-10-19 06:30:00,
2013-10-19 01:31:00,37.1,34.2,30.14,South,173,0.0,5.0,89,0.00,,---,0.00,VWS V14.01,2013-10-19 06:31:00,
2013-10-19 01:36:00,37.1,34.4,30.14,South,179,6.0,10.0,90,0.00,,---,0.00,VWS V14.01,2013-10-19 06:36:00,
2013-10-19 01:40:00,37.1,34.4,30.14,South,190,9.0,12.0,90,0.00,,---,0.00,VWS V14.01,2013-10-19 06:40:00,
2013-10-19 01:41:00,37.1,34.4,30.13,SSW,197,2.0,8.0,90,0.00,,---,0.00,VWS V14.01,2013-10-19 06:41:00,
2013-10-19 01:46:00,37.1,34.4,30.14,SSW,207,1.0,8.0,90,0.00,,---,0.00,VWS V14.01,2013-10-19 06:46:00,
2013-10-19 01:50:00,37.1,34.4,30.14,SSW,201,3.0,8.0,90,0.00,,---,0.00,VWS V14.01,2013-10-19 06:50:00,
2013-10-19 01:51:00,37.1,34.4,30.14,South,176,4.0,8.0,90,0.00,,---,0.00,VWS V14.01,2013-10-19 06:51:00,
2013-10-19 01:56:00,37.1,34.2,30.13,SSW,199,6.0,8.0,89,0.00,,---,0.00,VWS V14.01,2013-10-19 06:56:00,
2013-10-19 02:00:00,37.0,34.1,30.14,SSW,200,12.0,12.0,89,0.00,,---,0.00,VWS V14.01,2013-10-19 07:00:00,
2013-10-19 02:01:00,37.0,34.1,30.14,SSW,194,5.0,9.0,89,0.00,,---,0.00,VWS V14.01,2013-10-19 07:01:00,
2013-10-19 02:06:00,37.0,34.3,30.14,SSW,200,0.0,9.0,90,0.00,,---,0.00,VWS V14.01,2013-10-19 07:06:00,
2013-10-19 02:10:00,37.0,34.3,30.14,SSW,198,1.0,9.0,90,0.00,,---,0.00,VWS V14.01,2013-10-19 07:10:00,
2013-10-19 02:11:00,37.0,34.3,30.14,SSW,196,0.0,5.0,90,0.00,,---,0.00,VWS V14.01,2013-10-19 07:11:00,
2013-10-19 02:16:00,37.0,34.3,30.14,SSW,198,6.0,7.0,90,0.00,,---,0.00,VWS V14.01,2013-10-19 07:16:00,
2013-10-19 02:20:00,37.0,34.3,30.14,SW,219,0.0,7.0,90,0.00,,---,0.00,VWS V14.01,2013-10-19 07:20:00,
2013-10-19 02:21:00,37.0,34.3,30.14,SSW,204,1.0,3.0,90,0.00,,---,0.00,VWS V14.01,2013-10-19 07:21:00,
2013-10-19 02:26:00,37.1,34.4,30.13,South,186,6.0,6.0,90,0.00,,---,0.00,VWS V14.01,2013-10-19 07:26:00,
2013-10-19 02:30:00,37.1,34.4,30.13,South,186,1.0,7.0,90,0.00,,---,0.00,VWS V14.01,2013-10-19 07:30:00,
2013-10-19 02:31:00,37.1,34.4,30.13,South,190,4.0,5.0,90,0.00,,---,0.00,VWS V14.01,2013-10-19 07:31:00,
2013-10-19 02:36:00,37.2,34.5,30.14,South,186,1.0,8.0,90,0.00,,---,0.00,VWS V14.01,2013-10-19 07:36:00,
2013-10-19 02:40:00,37.2,34.5,30.13,SSW,193,1.0,8.0,90,0.00,,---,0.00,VWS V14.01,2013-10-19 07:40:00,
2013-10-19 02:41:00,37.2,34.5,30.13,South,186,1.0,5.0,90,0.00,,---,0.00,VWS V14.01,2013-10-19 07:41:00,
2013-10-19 02:46:00,37.2,34.5,30.13,South,171,6.0,8.0,90,0.00,,---,0.00,VWS V14.01,2013-10-19 07:46:00,
2013-10-19 02:50:00,37.2,34.5,30.13,SSW,195,1.0,8.0,90,0.00,,---,0.00,VWS V14.01,2013-10-19 07:50:00,
2013-10-19 02:51:00,37.2,34.5,30.13,SSW,193,1.0,5.0,90,0.00,,---,0.00,VWS V14.01,2013-10-19 07:51:00,
2013-10-19 02:56:00,37.3,34.6,30.13,SW,227,1.0,6.0,90,0.00,,---,0.00,VWS V14.01,2013-10-19 07:56:00,
2013-10-19 03:00:00,37.3,34.4,30.12,South,188,1.0,6.0,89,0.00,,---,0.00,VWS V14.01,2013-10-19 08:00:00,
2013-10-19 03:01:00,37.3,34.4,30.12,SSW,192,3.0,6.0,89,0.00,,---,0.00,VWS V14.01,2013-10-19 08:01:00,
2013-10-19 03:06:00,37.2,34.3,30.12,SSW,198,0.0,8.0,89,0.00,,---,0.00,VWS V14.01,2013-10-19 08:06:00,
2013-10-19 03:10:00,37.2,34.3,30.12,SSW,195,0.0,8.0,89,0.00,,---,0.00,VWS V14.01,2013-10-19 08:10:00,
2013-10-19 03:11:00,37.2,34.3,30.12,SSW,195,0.0,1.0,89,0.00,,---,0.00,VWS V14.01,2013-10-19 08:11:00,
2013-10-19 03:16:00,37.1,34.2,30.12,SSW,195,3.0,3.0,89,0.00,,---,0.00,VWS V14.01,2013-10-19 08:16:00,
2013-10-19 03:20:00,37.1,34.2,30.12,SSE,151,0.0,5.0,89,0.00,,---,0.00,VWS V14.01,2013-10-19 08:20:00,
2013-10-19 03:21:00,37.1,34.2,30.12,SSE,151,1.0,2.0,89,0.00,,---,0.00,VWS V14.01,2013-10-19 08:21:00,
2013-10-19 03:26:00,37.1,34.2,30.12,South,185,0.0,7.0,89,0.00,,---,0.00,VWS V14.01,2013-10-19 08:26:00,
2013-10-19 03:30:00,37.0,34.1,30.12,SSW,195,1.0,7.0,89,0.00,,---,0.00,VWS V14.01,2013-10-19 08:30:00,
2013-10-19 03:31:00,37.0,34.1,30.11,SSW,195,0.0,3.0,89,0.00,,---,0.00,VWS V14.01,2013-10-19 08:31:00,
2013-10-19 03:36:00,37.0,34.1,30.11,South,186,0.0,5.0,89,0.00,,---,0.00,VWS V14.01,2013-10-19 08:36:00,
2013-10-19 03:40:00,36.9,34.0,30.11,South,176,4.0,5.0,89,0.00,,---,0.00,VWS V14.01,2013-10-19 08:40:00,
2013-10-19 03:41:00,36.9,34.0,30.11,South,176,0.0,4.0,89,0.00,,---,0.00,VWS V14.01,2013-10-19 08:41:00,
2013-10-19 03:46:00,36.8,33.9,30.10,SSW,211,2.0,5.0,89,0.00,,---,0.00,VWS V14.01,2013-10-19 08:46:00,
2013-10-19 03:50:00,36.8,33.9,30.10,SSW,209,0.0,5.0,89,0.00,,---,0.00,VWS V14.01,2013-10-19 08:50:00,
2013-10-19 03:51:00,36.7,33.8,30.10,SSW,196,0.0,2.0,89,0.00,,---,0.00,VWS V14.01,2013-10-19 08:51:00,
2013-10-19 03:56:00,36.6,33.7,30.10,South,188,2.0,6.0,89,0.00,,---,0.00,VWS V14.01,2013-10-19 08:56:00,
2013-10-19 04:00:00,36.5,33.6,30.10,SSW,207,2.0,6.0,89,0.00,,---,0.00,VWS V14.01,2013-10-19 09:00:00,
2013-10-19 04:01:00,36.5,33.6,30.10,SSW,205,1.0,2.0,89,0.00,,---,0.00,VWS V14.01,2013-10-19 09:01:00,
2013-10-19 04:06:00,36.4,33.5,30.10,SSW,205,0.0,2.0,89,0.00,,---,0.00,VWS V14.01,2013-10-19 09:06:00,
2013-10-19 04:10:00,36.3,33.4,30.10,SSW,205,0.0,2.0,89,0.00,,---,0.00,VWS V14.01,2013-10-19 09:10:00,
2013-10-19 04:11:00,36.3,33.4,30.10,SSW,205,1.0,1.0,89,0.00,,---,0.00,VWS V14.01,2013-10-19 09:11:00,
2013-10-19 04:16:00,36.2,33.3,30.10,South,189,0.0,6.0,89,0.00,,---,0.00,VWS V14.01,2013-10-19 09:16:00,
2013-10-19 04:20:00,36.1,33.2,30.09,South,189,0.0,6.0,89,0.00,,---,0.00,VWS V14.01,2013-10-19 09:20:00,
2013-10-19 04:21:00,36.1,33.2,30.09,South,189,0.0,3.0,89,0.00,,---,0.00,VWS V14.01,2013-10-19 09:21:00,
2013-10-19 04:26:00,36.0,33.4,30.10,South,175,5.0,5.0,90,0.00,,---,0.00,VWS V14.01,2013-10-19 09:26:00,
2013-10-19 04:30:00,35.9,33.3,30.10,South,175,0.0,5.0,90,0.00,,---,0.00,VWS V14.01,2013-10-19 09:30:00,
2013-10-19 04:31:00,35.9,33.3,30.10,South,175,0.0,1.0,90,0.00,,---,0.00,VWS V14.01,2013-10-19 09:31:00,
2013-10-19 04:36:00,35.9,33.3,30.10,SSW,196,0.0,5.0,90,0.00,,---,0.00,VWS V14.01,2013-10-19 09:36:00,
2013-10-19 04:40:00,35.8,33.2,30.10,South,184,0.0,6.0,90,0.00,,---,0.00,VWS V14.01,2013-10-19 09:40:00,
2013-10-19 04:41:00,35.7,33.1,30.09,South,185,0.0,2.0,90,0.00,,---,0.00,VWS V14.01,2013-10-19 09:41:00,
2013-10-19 04:46:00,35.7,33.1,30.09,South,185,0.0,2.0,90,0.00,,---,0.00,VWS V14.01,2013-10-19 09:46:00,
2013-10-19 04:50:00,35.7,33.1,30.09,South,186,1.0,4.0,90,0.00,,---,0.00,VWS V14.01,2013-10-19 09:50:00,
2013-10-19 04:51:00,35.6,33.0,30.09,South,186,0.0,2.0,90,0.00,,---,0.00,VWS V14.01,2013-10-19 09:51:00,
2013-10-19 04:56:00,35.6,33.0,30.09,South,186,0.0,2.0,90,0.00,,---,0.00,VWS V14.01,2013-10-19 09:56:00,
2013-10-19 05:00:00,35.5,32.9,30.10,South,185,0.0,2.0,90,0.00,,---,0.00,VWS V14.01,2013-10-19 10:00:00,
2013-10-19 05:01:00,35.5,32.9,30.10,South,185,0.0,0.0,90,0.00,,---,0.00,VWS V14.01,2013-10-19 10:01:00,
2013-10-19 05:06:00,35.5,33.1,30.09,South,175,5.0,7.0,91,0.00,,---,0.00,VWS V14.01,2013-10-19 10:06:00,
2013-10-19 05:10:00,35.5,33.1,30.09,South,176,2.0,7.0,91,0.00,,---,0.00,VWS V14.01,2013-10-19 10:10:00,
2013-10-19 05:11:00,35.5,33.1,30.09,South,176,2.0,4.0,91,0.00,,---,0.00,VWS V14.01,2013-10-19 10:11:00,
2013-10-19 05:16:00,35.4,33.0,30.09,SSW,196,5.0,7.0,91,0.00,,---,0.00,VWS V14.01,2013-10-19 10:16:00,
2013-10-19 05:20:00,35.4,33.0,30.09,South,184,1.0,8.0,91,0.00,,---,0.00,VWS V14.01,2013-10-19 10:20:00,
2013-10-19 05:21:00,35.4,33.0,30.09,SSW,212,3.0,5.0,91,0.00,,---,0.00,VWS V14.01,2013-10-19 10:21:00,
2013-10-19 05:26:00,35.4,33.0,30.09,SSW,209,1.0,5.0,91,0.00,,---,0.00,VWS V14.01,2013-10-19 10:26:00,
2013-10-19 05:30:00,35.3,32.9,30.10,South,175,4.0,5.0,91,0.00,,---,0.00,VWS V14.01,2013-10-19 10:30:00,
2013-10-19 05:31:00,35.3,32.9,30.10,SSW,202,1.0,6.0,91,0.00,,---,0.00,VWS V14.01,2013-10-19 10:31:00,
2013-10-19 05:36:00,35.3,32.9,30.10,SSW,196,3.0,8.0,91,0.00,,---,0.00,VWS V14.01,2013-10-19 10:36:00,
2013-10-19 05:40:00,35.2,32.8,30.09,South,183,2.0,8.0,91,0.00,,---,0.00,VWS V14.01,2013-10-19 10:40:00,
2013-10-19 05:41:00,35.3,32.9,30.09,South,183,0.0,1.0,91,0.00,,---,0.00,VWS V14.01,2013-10-19 10:41:00,
2013-10-19 05:46:00,35.2,32.8,30.09,SSW,194,6.0,6.0,91,0.00,,---,0.00,VWS V14.01,2013-10-19 10:46:00,
2013-10-19 05:50:00,35.2,32.8,30.09,South,180,0.0,7.0,91,0.00,,---,0.00,VWS V14.01,2013-10-19 10:50:00,
2013-10-19 05:51:00,35.1,32.7,30.09,South,180,0.0,0.0,91,0.00,,---,0.00,VWS V14.01,2013-10-19 10:51:00,
2013-10-19 05:55:00,35.1,32.7,30.09,South,177,0.0,2.0,91,0.00,,---,0.00,VWS V14.01,2013-10-19 10:55:00,
2013-10-19 06:00:00,35.1,32.7,30.09,South,169,1.0,2.0,91,0.00,,---,0.00,VWS V14.01,2013-10-19 11:00:00,
2013-10-19 06:05:00,35.0,32.6,30.10,South,186,0.0,5.0,91,0.00,,---,0.00,VWS V14.01,2013-10-19 11:05:00,
2013-10-19 06:10:00,34.9,32.5,30.10,SSW,194,0.0,1.0,91,0.00,,---,0.00,VWS V14.01,2013-10-19 11:10:00,
2013-10-19 06:15:00,34.9,32.5,30.10,SSW,194,3.0,5.0,91,0.00,,---,0.00,VWS V14.01,2013-10-19 11:15:00,
2013-10-19 06:20:00,34.8,32.5,30.10,South,190,5.0,5.0,91,0.00,,---,0.00,VWS V14.01,2013-10-19 11:20:00,
2013-10-19 06:25:00,34.8,32.5,30.09,South,188,0.0,6.0,91,0.00,,---,0.00,VWS V14.01,2013-10-19 11:25:00,
2013-10-19 06:30:00,34.8,32.5,30.09,SSW,211,0.0,3.0,91,0.00,,---,0.00,VWS V14.01,2013-10-19 11:30:00,
2013-10-19 06:35:00,34.7,32.3,30.10,South,190,1.0,6.0,91,0.00,,---,0.00,VWS V14.01,2013-10-19 11:35:00,
2013-10-19 06:40:00,34.7,32.3,30.10,South,173,4.0,5.0,91,0.00,,---,0.00,VWS V14.01,2013-10-19 11:40:00,
2013-10-19 06:45:00,34.7,32.3,30.09,South,190,2.0,5.0,91,0.00,,---,0.00,VWS V14.01,2013-10-19 11:45:00,
2013-10-19 06:50:00,34.6,32.2,30.10,SSW,196,1.0,4.0,91,0.00,,---,0.00,VWS V14.01,2013-10-19 11:50:00,
2013-10-19 06:55:00,34.6,32.2,30.10,SSW,199,3.0,7.0,91,0.00,,---,0.00,VWS V14.01,2013-10-19 11:55:00,
2013-10-19 07:00:00,34.5,32.2,30.10,South,188,2.0,2.0,91,0.00,,---,0.00,VWS V14.01,2013-10-19 12:00:00,
2013-10-19 07:05:00,34.5,32.2,30.09,South,181,0.0,5.0,91,0.00,,---,0.00,VWS V14.01,2013-10-19 12:05:00,
2013-10-19 07:10:00,34.4,32.0,30.10,South,182,3.0,3.0,91,0.00,,---,0.00,VWS V14.01,2013-10-19 12:10:00,
2013-10-19 07:15:00,34.4,32.0,30.10,South,178,1.0,4.0,91,0.00,,---,0.00,VWS V14.01,2013-10-19 12:15:00,
2013-10-19 07:20:00,34.3,32.0,30.10,South,179,2.0,6.0,91,0.00,,---,0.00,VWS V14.01,2013-10-19 12:20:00,
2013-10-19 07:25:00,34.3,32.0,30.09,South,179,0.0,6.0,91,0.00,,---,0.00,VWS V14.01,2013-10-19 12:25:00,
2013-10-19 07:30:00,34.2,31.9,30.09,SW,215,1.0,4.0,91,0.00,,---,0.00,VWS V14.01,2013-10-19 12:30:00,
2013-10-19 07:35:00,34.2,31.9,30.10,South,169,1.0,8.0,91,0.00,,---,0.00,VWS V14.01,2013-10-19 12:35:00,
2013-10-19 07:40:00,34.2,32.1,30.10,SSW,201,0.0,2.0,92,0.00,,---,0.00,VWS V14.01,2013-10-19 12:40:00,
2013-10-19 07:45:00,34.2,32.1,30.09,South,187,4.0,5.0,92,0.00,,---,0.00,VWS V14.01,2013-10-19 12:45:00,
2013-10-19 07:50:00,34.2,32.1,30.10,South,183,1.0,4.0,92,0.00,,---,0.00,VWS V14.01,2013-10-19 12:50:00,
2013-10-19 07:55:00,34.2,32.1,30.10,South,182,3.0,7.0,92,0.00,,---,0.00,VWS V14.01,2013-10-19 12:55:00,
2013-10-19 08:00:00,34.3,32.2,30.09,South,182,0.0,1.0,92,0.00,,---,0.00,VWS V14.01,2013-10-19 13:00:00,
2013-10-19 08:05:00,34.3,32.2,30.09,South,190,5.0,6.0,92,0.00,,---,0.00,VWS V14.01,2013-10-19 13:05:00,
2013-10-19 08:10:00,34.4,32.3,30.09,South,169,1.0,4.0,92,0.00,,---,0.00,VWS V14.01,2013-10-19 13:10:00,
2013-10-19 08:15:00,34.4,32.3,30.09,South,190,2.0,6.0,92,0.00,,---,0.00,VWS V14.01,2013-10-19 13:15:00,
2013-10-19 08:20:00,34.5,32.4,30.09,South,169,2.0,2.0,92,0.00,,---,0.00,VWS V14.01,2013-10-19 13:20:00,
2013-10-19 08:25:00,34.6,32.5,30.09,SSW,205,0.0,7.0,92,0.00,,---,0.00,VWS V14.01,2013-10-19 13:25:00,
2013-10-19 08:30:00,34.7,32.6,30.09,SSW,209,4.0,4.0,92,0.00,,---,0.00,VWS V14.01,2013-10-19 13:30:00,
2013-10-19 08:35:00,34.8,32.7,30.09,SSW,193,2.0,9.0,92,0.00,,---,0.00,VWS V14.01,2013-10-19 13:35:00,
2013-10-19 08:40:00,35.0,32.9,30.09,South,182,1.0,8.0,92,0.00,,---,0.00,VWS V14.01,2013-10-19 13:40:00,
2013-10-19 08:45:00,35.2,33.1,30.09,SSW,211,1.0,8.0,92,0.00,,---,0.00,VWS V14.01,2013-10-19 13:45:00,
2013-10-19 08:50:00,35.4,33.3,30.09,South,182,1.0,2.0,92,0.00,,---,0.00,VWS V14.01,2013-10-19 13:50:00,
2013-10-19 08:55:00,35.6,33.5,30.09,SSW,198,0.0,8.0,92,0.00,,---,0.00,VWS V14.01,2013-10-19 13:55:00,
2013-10-19 09:00:00,35.8,33.7,30.09,SSW,195,0.0,2.0,92,0.00,,---,0.00,VWS V14.01,2013-10-19 14:00:00,
2013-10-19 09:05:00,36.1,34.0,30.09,SSW,192,2.0,4.0,92,0.00,,---,0.00,VWS V14.01,2013-10-19 14:05:00,
2013-10-19 09:10:00,36.3,34.2,30.09,South,188,3.0,4.0,92,0.00,,---,0.00,VWS V14.01,2013-10-19 14:10:00,
2013-10-19 09:15:00,36.5,34.4,30.09,SSW,198,6.0,7.0,92,0.00,,---,0.00,VWS V14.01,2013-10-19 14:15:00,
2013-10-19 09:20:00,36.8,34.4,30.09,SSE,167,1.0,7.0,91,0.00,,---,0.00,VWS V14.01,2013-10-19 14:20:00,
2013-10-19 09:25:00,37.1,34.7,30.09,SW,230,8.0,8.0,91,0.00,,---,0.00,VWS V14.01,2013-10-19 14:25:00,
2013-10-19 09:30:00,37.4,35.0,30.10,SSW,196,3.0,3.0,91,0.00,,---,0.00,VWS V14.01,2013-10-19 14:30:00,
2013-10-19 09:35:00,37.6,34.9,30.09,South,185,5.0,8.0,90,0.00,,---,0.00,VWS V14.01,2013-10-19 14:35:00,
2013-10-19 09:40:00,37.9,35.2,30.09,South,182,3.0,8.0,90,0.00,,---,0.00,VWS V14.01,2013-10-19 14:40:00,
2013-10-19 09:45:00,38.2,35.2,30.09,SSW,205,2.0,8.0,89,0.00,,---,0.00,VWS V14.01,2013-10-19 14:45:00,
2013-10-19 09:50:00,38.5,35.5,30.09,South,190,3.0,6.0,89,0.00,,---,0.00,VWS V14.01,2013-10-19 14:50:00,
2013-10-19 09:55:00,38.8,35.8,30.09,South,184,4.0,10.0,89,0.00,,---,0.00,VWS V14.01,2013-10-19 14:55:00,
2013-10-19 10:00:00,39.1,36.1,30.09,South,184,4.0,5.0,89,0.00,,---,0.00,VWS V14.01,2013-10-19 15:00:00,
2013-10-19 10:05:00,39.5,36.2,30.09,South,188,2.0,7.0,88,0.00,,---,0.00,VWS V14.01,2013-10-19 15:05:00,
2013-10-19 10:10:00,39.8,36.5,30.09,SSW,205,5.0,5.0,88,0.00,,---,0.00,VWS V14.01,2013-10-19 15:10:00,
2013-10-19 10:15:00,40.2,36.7,30.09,SSW,198,2.0,7.0,87,0.00,,---,0.00,VWS V14.01,2013-10-19 15:15:00,
2013-10-19 10:20:00,40.5,36.7,30.09,SSW,202,2.0,6.0,86,0.00,,---,0.00,VWS V14.01,2013-10-19 15:20:00,
2013-10-19 10:25:00,40.9,36.8,30.08,SSW,193,0.0,8.0,85,0.00,,---,0.00,VWS V14.01,2013-10-19 15:25:00,
2013-10-19 10:30:00,41.3,37.1,30.08,SSW,207,1.0,3.0,85,0.00,,---,0.00,VWS V14.01,2013-10-19 15:30:00,
2013-10-19 10:35:00,41.6,36.8,30.08,SSW,201,9.0,9.0,83,0.00,,---,0.00,VWS V14.01,2013-10-19 15:35:00,
2013-10-19 10:40:00,42.0,37.2,30.08,SSW,205,1.0,1.0,83,0.00,,---,0.00,VWS V14.01,2013-10-19 15:40:00,
2013-10-19 10:45:00,42.4,37.6,30.07,SSW,204,0.0,4.0,83,0.00,,---,0.00,VWS V14.01,2013-10-19 15:45:00,
2013-10-19 10:50:00,42.8,37.7,30.07,SW,234,0.0,1.0,82,0.00,,---,0.00,VWS V14.01,2013-10-19 15:50:00,
2013-10-19 10:55:00,43.3,37.9,30.06,SSE,163,1.0,7.0,81,0.00,,---,0.00,VWS V14.01,2013-10-19 15:55:00,
2013-10-19 11:00:00,43.8,38.0,30.06,SSW,195,6.0,6.0,80,0.00,,---,0.00,VWS V14.01,2013-10-19 16:00:00,
2013-10-19 11:05:00,44.2,38.4,30.06,South,188,2.0,9.0,80,0.00,,---,0.00,VWS V14.01,2013-10-19 16:05:00,
2013-10-19 11:10:00,44.8,39.0,30.06,SSW,206,4.0,7.0,80,0.00,,---,0.00,VWS V14.01,2013-10-19 16:10:00,
2013-10-19 11:15:00,45.3,38.9,30.06,SSW,192,2.0,7.0,78,0.00,,---,0.00,VWS V14.01,2013-10-19 16:15:00,
2013-10-19 11:20:00,45.8,39.0,30.06,SSW,198,1.0,5.0,77,0.00,,---,0.00,VWS V14.01,2013-10-19 16:20:00,
2013-10-19 11:25:00,46.4,39.3,30.06,SSW,205,4.0,7.0,76,0.00,,---,0.00,VWS V14.01,2013-10-19 16:25:00,
2013-10-19 11:30:00,46.9,39.4,30.06,SSW,193,1.0,4.0,75,0.00,,---,0.00,VWS V14.01,2013-10-19 16:30:00,
2013-10-19 11:35:00,47.5,39.3,30.05,South,191,6.0,8.0,73,0.00,,---,0.00,VWS V14.01,2013-10-19 16:35:00,
2013-10-19 11:40:00,48.1,39.5,30.06,South,172,0.0,3.0,72,0.00,,---,0.00,VWS V14.01,2013-10-19 16:40:00,
2013-10-19 11:45:00,48.8,39.8,30.05,SSW,205,2.0,8.0,71,0.00,,---,0.00,VWS V14.01,2013-10-19 16:45:00,
2013-10-19 11:50:00,49.5,39.8,30.05,South,177,2.0,5.0,69,0.00,,---,0.00,VWS V14.01,2013-10-19 16:50:00,
2013-10-19 11:55:00,50.2,40.1,30.05,South,184,4.0,9.0,68,0.00,,---,0.00,VWS V14.01,2013-10-19 16:55:00,
2013-10-19 12:00:00,50.8,39.9,30.05,South,184,1.0,9.0,66,0.00,,---,0.00,VWS V14.01,2013-10-19 17:00:00,
2013-10-19 12:05:00,51.4,40.0,30.05,South,171,0.0,9.0,65,0.00,,---,0.00,VWS V14.01,2013-10-19 17:05:00,
2013-10-19 12:10:00,51.9,40.1,30.05,SSW,201,0.0,2.0,64,0.00,,---,0.00,VWS V14.01,2013-10-19 17:10:00,
2013-10-19 12:15:00,52.4,40.2,30.05,SSW,198,3.0,12.0,63,0.00,,---,0.00,VWS V14.01,2013-10-19 17:15:00,
2013-10-19 12:20:00,53.0,40.8,30.04,SW,224,3.0,3.0,63,0.00,,---,0.00,VWS V14.01,2013-10-19 17:20:00,
2013-10-19 12:25:00,53.4,40.3,30.04,South,169,4.0,11.0,61,0.00,,---,0.00,VWS V14.01,2013-10-19 17:25:00,
2013-10-19 12:30:00,53.7,40.6,30.04,SSW,198,1.0,2.0,61,0.00,,---,0.00,VWS V14.01,2013-10-19 17:30:00,
2013-10-19 12:35:00,54.2,40.6,30.04,South,185,6.0,10.0,60,0.00,,---,0.00,VWS V14.01,2013-10-19 17:35:00,
2013-10-19 12:40:00,54.6,40.1,30.04,South,184,0.0,2.0,58,0.00,,---,0.00,VWS V14.01,2013-10-19 17:40:00,
2013-10-19 12:45:00,55.0,39.6,30.04,West,265,0.0,7.0,56,0.00,,---,0.00,VWS V14.01,2013-10-19 17:45:00,
2013-10-19 12:50:00,55.4,40.0,30.04,SSW,196,2.0,2.0,56,0.00,,---,0.00,VWS V14.01,2013-10-19 17:50:00,
2013-10-19 12:55:00,55.9,39.5,30.03,SW,222,5.0,8.0,54,0.00,,---,0.00,VWS V14.01,2013-10-19 17:55:00,
2013-10-19 13:00:00,56.3,39.9,30.03,SW,221,1.0,2.0,54,0.00,,---,0.00,VWS V14.01,2013-10-19 18:00:00,
2013-10-19 13:05:00,56.7,38.8,30.03,SSW,192,4.0,4.0,51,0.00,,---,0.00,VWS V14.01,2013-10-19 18:05:00,
2013-10-19 13:10:00,57.1,38.7,30.03,NNW,348,1.0,6.0,50,0.00,,---,0.00,VWS V14.01,2013-10-19 18:10:00,
2013-10-19 13:15:00,57.5,38.5,30.02,West,267,1.0,9.0,49,0.00,,---,0.00,VWS V14.01,2013-10-19 18:15:00,
2013-10-19 13:20:00,57.7,39.7,30.02,South,187,3.0,4.0,51,0.00,,---,0.00,VWS V14.01,2013-10-19 18:20:00,
2013-10-19 13:25:00,58.1,39.6,30.02,South,189,1.0,8.0,50,0.00,,---,0.00,VWS V14.01,2013-10-19 18:25:00,
2013-10-19 13:30:00,58.4,39.8,30.01,South,169,1.0,1.0,50,0.00,,---,0.00,VWS V14.01,2013-10-19 18:30:00,
2013-10-19 13:35:00,58.9,39.8,30.01,WSW,258,4.0,12.0,49,0.00,,---,0.00,VWS V14.01,2013-10-19 18:35:00,
2013-10-19 13:40:00,59.4,39.7,30.00,SSE,159,0.0,1.0,48,0.00,,---,0.00,VWS V14.01,2013-10-19 18:40:00,
2013-10-19 13:45:00,59.9,38.0,30.00,South,185,3.0,9.0,44,0.00,,---,0.00,VWS V14.01,2013-10-19 18:45:00,
2013-10-19 13:50:00,60.2,37.6,30.00,SW,225,3.0,5.0,43,0.00,,---,0.00,VWS V14.01,2013-10-19 18:50:00,
2013-10-19 13:55:00,60.5,39.1,29.99,SSW,192,4.0,9.0,45,0.00,,---,0.00,VWS V14.01,2013-10-19 18:55:00,
2013-10-19 14:00:00,60.8,38.8,29.99,South,184,2.0,3.0,44,0.00,,---,0.00,VWS V14.01,2013-10-19 19:00:00,
2013-10-19 14:05:00,61.1,37.9,29.99,West,266,1.0,10.0,42,0.00,,---,0.00,VWS V14.01,2013-10-19 19:05:00,
2013-10-19 14:10:00,61.4,38.7,29.99,SW,219,1.0,2.0,43,0.00,,---,0.00,VWS V14.01,2013-10-19 19:10:00,
2013-10-19 14:15:00,61.6,38.9,29.99,SSW,209,10.0,10.0,43,0.00,,---,0.00,VWS V14.01,2013-10-19 19:15:00,
2013-10-19 14:20:00,61.7,39.0,29.99,SW,221,3.0,8.0,43,0.00,,---,0.00,VWS V14.01,2013-10-19 19:20:00,
2013-10-19 14:25:00,61.9,39.2,29.99,SSW,200,0.0,13.0,43,0.00,,---,0.00,VWS V14.01,2013-10-19 19:25:00,
2013-10-19 14:30:00,62.0,38.7,29.99,SW,221,1.0,2.0,42,0.00,,---,0.00,VWS V14.01,2013-10-19 19:30:00,
2013-10-19 14:35:00,62.0,38.7,29.98,SSW,200,10.0,11.0,42,0.00,,---,0.00,VWS V14.01,2013-10-19 19:35:00,
2013-10-19 14:40:00,62.1,38.8,29.98,SW,214,2.0,2.0,42,0.00,,---,0.00,VWS V14.01,2013-10-19 19:40:00,
2013-10-19 14:45:00,62.0,38.7,29.97,South,181,4.0,11.0,42,0.00,,---,0.00,VWS V14.01,2013-10-19 19:45:00,
2013-10-19 14:50:00,62.0,39.9,29.97,SSW,212,10.0,11.0,44,0.00,,---,0.00,VWS V14.01,2013-10-19 19:50:00,
2013-10-19 14:55:00,62.2,39.5,29.97,SSW,201,4.0,11.0,43,0.00,,---,0.00,VWS V14.01,2013-10-19 19:55:00,
2013-10-19 15:00:00,62.3,39.5,29.97,South,184,6.0,6.0,43,0.00,,---,0.00,VWS V14.01,2013-10-19 20:00:00,
2013-10-19 15:05:00,62.5,39.1,29.97,SW,226,4.0,9.0,42,0.00,,---,0.00,VWS V14.01,2013-10-19 20:05:00,
2013-10-19 15:10:00,62.7,39.9,29.97,SSW,198,2.0,3.0,43,0.00,,---,0.00,VWS V14.01,2013-10-19 20:10:00,
2013-10-19 15:15:00,63.0,39.6,29.97,SSW,211,0.0,11.0,42,0.00,,---,0.00,VWS V14.01,2013-10-19 20:15:00,
2013-10-19 15:20:00,63.2,39.1,29.97,SSW,200,5.0,10.0,41,0.00,,---,0.00,VWS V14.01,2013-10-19 20:20:00,
2013-10-19 15:25:00,63.2,38.5,29.96,NW,311,2.0,10.0,40,0.00,,---,0.00,VWS V14.01,2013-10-19 20:25:00,
2013-10-19 15:30:00,63.2,39.1,29.96,SSW,194,6.0,6.0,41,0.00,,---,0.00,VWS V14.01,2013-10-19 20:30:00,
2013-10-19 15:35:00,63.3,39.2,29.96,South,188,2.0,15.0,41,0.00,,---,0.00,VWS V14.01,2013-10-19 20:35:00,
2013-10-19 15:40:00,63.5,39.4,29.96,SSW,200,3.0,10.0,41,0.00,,---,0.00,VWS V14.01,2013-10-19 20:40:00,
2013-10-19 15:45:00,63.6,38.9,29.96,WSW,240,2.0,12.0,40,0.00,,---,0.00,VWS V14.01,2013-10-19 20:45:00,
2013-10-19 15:50:00,63.5,39.4,29.96,South,173,9.0,9.0,41,0.00,,---,0.00,VWS V14.01,2013-10-19 20:50:00,
2013-10-19 15:55:00,63.4,39.3,29.96,WSW,240,3.0,10.0,41,0.00,,---,0.00,VWS V14.01,2013-10-19 20:55:00,
2013-10-19 16:00:00,63.4,39.3,29.95,SW,220,4.0,4.0,41,0.00,,---,0.00,VWS V14.01,2013-10-19 21:00:00,
2013-10-19 16:05:00,63.3,39.2,29.96,South,188,0.0,11.0,41,0.00,,---,0.00,VWS V14.01,2013-10-19 21:05:00,
2013-10-19 16:10:00,63.3,39.8,29.96,SSW,212,5.0,9.0,42,0.00,,---,0.00,VWS V14.01,2013-10-19 21:10:00,
2013-10-19 16:15:00,63.2,39.8,29.95,SSE,155,2.0,15.0,42,0.00,,---,0.00,VWS V14.01,2013-10-19 21:15:00,
2013-10-19 16:20:00,63.1,39.7,29.95,SW,221,4.0,5.0,42,0.00,,---,0.00,VWS V14.01,2013-10-19 21:20:00,
2013-10-19 16:25:00,63.1,39.7,29.95,SSW,192,1.0,10.0,42,0.00,,---,0.00,VWS V14.01,2013-10-19 21:25:00,
2013-10-19 16:30:00,63.0,39.6,29.95,SW,217,1.0,1.0,42,0.00,,---,0.00,VWS V14.01,2013-10-19 21:30:00,
2013-10-19 16:35:00,62.9,40.1,29.95,SSE,167,4.0,6.0,43,0.00,,---,0.00,VWS V14.01,2013-10-19 21:35:00,
2013-10-19 16:40:00,62.9,40.1,29.95,SSW,208,3.0,6.0,43,0.00,,---,0.00,VWS V14.01,2013-10-19 21:40:00,
2013-10-19 16:45:00,62.7,39.9,29.95,SSW,205,3.0,12.0,43,0.00,,---,0.00,VWS V14.01,2013-10-19 21:45:00,
2013-10-19 16:50:00,62.6,39.2,29.95,SSW,213,1.0,2.0,42,0.00,,---,0.00,VWS V14.01,2013-10-19 21:50:00,
2013-10-19 16:55:00,62.5,39.7,29.95,SSW,211,4.0,10.0,43,0.00,,---,0.00,VWS V14.01,2013-10-19 21:55:00,
2013-10-19 17:00:00,62.4,40.2,29.95,SSW,195,2.0,2.0,44,0.00,,---,0.00,VWS V14.01,2013-10-19 22:00:00,
2013-10-19 17:05:00,62.3,40.1,29.95,South,190,0.0,9.0,44,0.00,,---,0.00,VWS V14.01,2013-10-19 22:05:00,
2013-10-19 17:10:00,62.2,40.0,29.95,South,190,4.0,5.0,44,0.00,,---,0.00,VWS V14.01,2013-10-19 22:10:00,
2013-10-19 17:15:00,62.1,40.5,29.95,South,172,1.0,5.0,45,0.00,,---,0.00,VWS V14.01,2013-10-19 22:15:00,
2013-10-19 17:20:00,62.0,40.4,29.95,SSE,162,2.0,2.0,45,0.00,,---,0.00,VWS V14.01,2013-10-19 22:20:00,
2013-10-19 17:25:00,61.8,40.3,29.95,SSW,204,6.0,11.0,45,0.00,,---,0.00,VWS V14.01,2013-10-19 22:25:00,
2013-10-19 17:30:00,61.6,40.1,29.95,South,177,1.0,2.0,45,0.00,,---,0.00,VWS V14.01,2013-10-19 22:30:00,
2013-10-19 17:35:00,61.4,40.5,29.95,SSW,207,6.0,10.0,46,0.00,,---,0.00,VWS V14.01,2013-10-19 22:35:00,
2013-10-19 17:40:00,61.2,40.3,29.95,SSW,207,1.0,10.0,46,0.00,,---,0.00,VWS V14.01,2013-10-19 22:40:00,
2013-10-19 17:45:00,61.0,40.1,29.95,SSW,203,4.0,6.0,46,0.00,,---,0.00,VWS V14.01,2013-10-19 22:45:00,
2013-10-19 17:49:00,60.9,40.5,29.95,South,169,0.0,6.0,47,0.00,,---,0.00,VWS V14.01,2013-10-19 22:49:00,
2013-10-19 17:50:00,60.9,40.6,29.95,South,169,0.0,6.0,47,0.00,,---,0.00,VWS V14.01,2013-10-19 22:50:00,
2013-10-19 17:54:00,60.7,39.8,29.95,South,180,1.0,8.0,46,0.00,,---,0.00,VWS V14.01,2013-10-19 22:54:00,
2013-10-19 17:59:00,60.5,40.2,29.95,South,182,4.0,8.0,47,0.00,,---,0.00,VWS V14.01,2013-10-19 22:59:00,
2013-10-19 18:00:00,60.5,40.2,29.95,South,182,4.0,8.0,47,0.00,,---,0.00,VWS V14.01,2013-10-19 23:00:00,
2013-10-19 18:04:00,60.3,40.0,29.95,SSE,165,4.0,7.0,47,0.00,,---,0.00,VWS V14.01,2013-10-19 23:04:00,
2013-10-19 18:09:00,60.0,40.3,29.95,SSE,154,1.0,7.0,48,0.00,,---,0.00,VWS V14.01,2013-10-19 23:09:00,
2013-10-19 18:10:00,60.0,40.3,29.95,SSE,154,1.0,7.0,48,0.00,,---,0.00,VWS V14.01,2013-10-19 23:10:00,
2013-10-19 18:14:00,59.8,40.1,29.95,South,184,1.0,5.0,48,0.00,,---,0.00,VWS V14.01,2013-10-19 23:14:00,
2013-10-19 18:19:00,59.6,40.4,29.95,South,186,1.0,5.0,49,0.00,,---,0.00,VWS V14.01,2013-10-19 23:19:00,
2013-10-19 18:20:00,59.6,40.4,29.95,South,186,0.0,5.0,49,0.00,,---,0.00,VWS V14.01,2013-10-19 23:20:00,
2013-10-19 18:24:00,59.4,40.2,29.95,SSE,168,1.0,5.0,49,0.00,,---,0.00,VWS V14.01,2013-10-19 23:24:00,
2013-10-19 18:29:00,59.1,40.0,29.95,WSW,246,1.0,5.0,49,0.00,,---,0.00,VWS V14.01,2013-10-19 23:29:00,
2013-10-19 18:30:00,59.1,40.0,29.95,WSW,246,1.0,5.0,49,0.00,,---,0.00,VWS V14.01,2013-10-19 23:30:00,
2013-10-19 18:34:00,58.8,40.2,29.95,SSW,202,4.0,7.0,50,0.00,,---,0.00,VWS V14.01,2013-10-19 23:34:00,
2013-10-19 18:39:00,58.6,40.0,29.95,South,177,0.0,7.0,50,0.00,,---,0.00,VWS V14.01,2013-10-19 23:39:00,
2013-10-19 18:40:00,58.6,40.0,29.95,South,177,0.0,7.0,50,0.00,,---,0.00,VWS V14.01,2013-10-19 23:40:00,
2013-10-19 18:44:00,58.3,40.3,29.95,South,188,4.0,5.0,51,0.00,,---,0.00,VWS V14.01,2013-10-19 23:44:00,
2013-10-19 18:49:00,58.1,40.1,29.95,South,180,0.0,7.0,51,0.00,,---,0.00,VWS V14.01,2013-10-19 23:49:00,
2013-10-19 18:50:00,58.1,40.1,29.95,South,180,0.0,7.0,51,0.00,,---,0.00,VWS V14.01,2013-10-19 23:50:00,
2013-10-19 18:54:00,57.8,40.3,29.95,South,180,0.0,3.0,52,0.00,,---,0.00,VWS V14.01,2013-10-19 23:54:00,
2013-10-19 18:59:00,57.5,40.0,29.96,South,180,0.0,3.0,52,0.00,,---,0.00,VWS V14.01,2013-10-19 23:59:00,
2013-10-19 19:00:00,57.5,40.0,29.95,South,180,0.0,3.0,52,0.00,,---,0.00,VWS V14.01,2013-10-20 00:00:00,
2013-10-19 19:04:00,57.2,40.2,29.95,South,180,2.0,2.0,53,0.00,,---,0.00,VWS V14.01,2013-10-20 00:04:00,
2013-10-19 19:09:00,56.9,40.0,29.96,South,180,0.0,5.0,53,0.00,,---,0.00,VWS V14.01,2013-10-20 00:09:00,
2013-10-19 19:10:00,56.8,39.9,29.96,South,180,0.0,5.0,53,0.00,,---,0.00,VWS V14.01,2013-10-20 00:10:00,
2013-10-19 19:14:00,56.6,39.7,29.96,South,180,0.0,1.0,53,0.00,,---,0.00,VWS V14.01,2013-10-20 00:14:00,
2013-10-19 19:19:00,56.3,39.9,29.96,South,180,1.0,2.0,54,0.00,,---,0.00,VWS V14.01,2013-10-20 00:19:00,
2013-10-19 19:20:00,56.2,39.8,29.96,South,180,0.0,2.0,54,0.00,,---,0.00,VWS V14.01,2013-10-20 00:20:00,
2013-10-19 19:24:00,56.0,40.1,29.96,South,180,1.0,2.0,55,0.00,,---,0.00,VWS V14.01,2013-10-20 00:24:00,
2013-10-19 19:29:00,55.7,39.8,29.96,South,180,0.0,2.0,55,0.00,,---,0.00,VWS V14.01,2013-10-20 00:29:00,
2013-10-19 19:30:00,55.7,39.8,29.96,South,180,0.0,2.0,55,0.00,,---,0.00,VWS V14.01,2013-10-20 00:30:00,
2013-10-19 19:34:00,55.5,40.1,29.96,South,180,0.0,0.0,56,0.00,,---,0.00,VWS V14.01,2013-10-20 00:34:00,
2013-10-19 19:39:00,55.2,39.8,29.96,South,180,0.0,3.0,56,0.00,,---,0.00,VWS V14.01,2013-10-20 00:39:00,
2013-10-19 19:40:00,55.1,39.7,29.96,South,180,0.0,3.0,56,0.00,,---,0.00,VWS V14.01,2013-10-20 00:40:00,
2013-10-19 19:44:00,54.9,40.0,29.96,South,180,0.0,0.0,57,0.00,,---,0.00,VWS V14.01,2013-10-20 00:44:00,
2013-10-19 19:49:00,54.6,40.1,29.96,South,180,0.0,0.0,58,0.00,,---,0.00,VWS V14.01,2013-10-20 00:49:00,
2013-10-19 19:50:00,54.6,40.1,29.96,South,180,0.0,0.0,58,0.00,,---,0.00,VWS V14.01,2013-10-20 00:50:00,
2013-10-19 19:54:00,54.4,40.4,29.96,South,180,0.0,0.0,59,0.00,,---,0.00,VWS V14.01,2013-10-20 00:54:00,
2013-10-19 19:59:00,54.1,40.5,29.96,South,180,0.0,0.0,60,0.00,,---,0.00,VWS V14.01,2013-10-20 00:59:00,
2013-10-19 20:00:00,54.1,40.5,29.96,South,180,0.0,0.0,60,0.00,,---,0.00,VWS V14.01,2013-10-20 01:00:00,
2013-10-19 20:04:00,53.8,40.3,29.95,South,180,0.0,0.0,60,0.00,,---,0.00,VWS V14.01,2013-10-20 01:04:00,
2013-10-19 20:09:00,53.5,40.4,29.96,South,180,0.0,0.0,61,0.00,,---,0.00,VWS V14.01,2013-10-20 01:09:00,
2013-10-19 20:10:00,53.5,40.4,29.96,South,180,0.0,0.0,61,0.00,,---,0.00,VWS V14.01,2013-10-20 01:10:00,
2013-10-19 20:14:00,53.2,40.5,29.96,South,180,0.0,0.0,62,0.00,,---,0.00,VWS V14.01,2013-10-20 01:14:00,
2013-10-19 20:19:00,52.9,40.7,29.96,South,180,0.0,0.0,63,0.00,,---,0.00,VWS V14.01,2013-10-20 01:19:00,
2013-10-19 20:20:00,52.9,40.7,29.96,South,180,0.0,0.0,63,0.00,,---,0.00,VWS V14.01,2013-10-20 01:20:00,
2013-10-19 20:24:00,52.6,40.8,29.96,South,180,0.0,0.0,64,0.00,,---,0.00,VWS V14.01,2013-10-20 01:24:00,
2013-10-19 20:29:00,52.3,40.5,29.95,South,180,0.0,0.0,64,0.00,,---,0.00,VWS V14.01,2013-10-20 01:29:00,
2013-10-19 20:30:00,52.3,40.9,29.95,South,180,0.0,0.0,65,0.00,,---,0.00,VWS V14.01,2013-10-20 01:30:00,
2013-10-19 20:34:00,52.0,40.6,29.95,South,180,0.0,0.0,65,0.00,,---,0.00,VWS V14.01,2013-10-20 01:34:00,
2013-10-19 20:39:00,51.7,40.7,29.95,South,180,0.0,0.0,66,0.00,,---,0.00,VWS V14.01,2013-10-20 01:39:00,
2013-10-19 20:40:00,51.7,40.7,29.95,South,180,0.0,0.0,66,0.00,,---,0.00,VWS V14.01,2013-10-20 01:40:00,
2013-10-19 20:44:00,51.4,40.4,29.95,South,180,0.0,0.0,66,0.00,,---,0.00,VWS V14.01,2013-10-20 01:44:00,
2013-10-19 20:49:00,51.1,40.5,29.95,South,180,0.0,0.0,67,0.00,,---,0.00,VWS V14.01,2013-10-20 01:49:00,
2013-10-19 20:50:00,51.1,40.5,29.95,South,180,0.0,0.0,67,0.00,,---,0.00,VWS V14.01,2013-10-20 01:50:00,
2013-10-19 20:54:00,50.8,40.2,29.95,South,180,0.0,0.0,67,0.00,,---,0.00,VWS V14.01,2013-10-20 01:54:00,
2013-10-19 20:59:00,50.5,40.3,29.95,South,180,0.0,0.0,68,0.00,,---,0.00,VWS V14.01,2013-10-20 01:59:00,
2013-10-19 21:00:00,50.5,40.3,29.95,South,180,0.0,0.0,68,0.00,,---,0.00,VWS V14.01,2013-10-20 02:00:00,
2013-10-19 21:04:00,50.3,40.2,29.95,South,180,0.0,0.0,68,0.00,,---,0.00,VWS V14.01,2013-10-20 02:04:00,
2013-10-19 21:09:00,50.0,40.2,29.95,South,180,0.0,0.0,69,0.00,,---,0.00,VWS V14.01,2013-10-20 02:09:00,
2013-10-19 21:10:00,53.5,40.4,29.96,South,180,0.0,0.0,61,0.00,,---,0.00,VWS V14.01,2013-10-20 02:10:00,
2013-10-19 21:14:00,49.7,40.0,29.95,South,180,0.0,0.0,69,0.00,,---,0.00,VWS V14.01,2013-10-20 02:14:00,
2013-10-19 21:19:00,49.5,40.1,29.95,South,180,0.0,0.0,70,0.00,,---,0.00,VWS V14.01,2013-10-20 02:19:00,
2013-10-19 21:20:00,49.5,40.1,29.95,South,180,0.0,0.0,70,0.00,,---,0.00,VWS V14.01,2013-10-20 02:20:00,
2013-10-19 21:24:00,49.2,39.8,29.95,South,180,0.0,0.0,70,0.00,,---,0.00,VWS V14.01,2013-10-20 02:24:00,
2013-10-19 21:29:00,49.0,39.7,29.95,South,180,0.0,0.0,70,0.00,,---,0.00,VWS V14.01,2013-10-20 02:29:00,
2013-10-19 21:30:00,49.0,39.7,29.95,South,180,0.0,0.0,70,0.00,,---,0.00,VWS V14.01,2013-10-20 02:30:00,
2013-10-19 21:34:00,48.7,39.7,29.95,South,180,0.0,0.0,71,0.00,,---,0.00,VWS V14.01,2013-10-20 02:34:00,
2013-10-19 21:39:00,48.5,39.5,29.95,South,180,0.0,0.0,71,0.00,,---,0.00,VWS V14.01,2013-10-20 02:39:00,
2013-10-19 21:40:00,48.5,39.5,29.95,South,180,0.0,0.0,71,0.00,,---,0.00,VWS V14.01,2013-10-20 02:40:00,
2013-10-19 21:44:00,48.3,39.7,29.95,South,180,0.0,0.0,72,0.00,,---,0.00,VWS V14.01,2013-10-20 02:44:00,
2013-10-19 21:49:00,48.1,39.5,29.95,South,180,0.0,0.0,72,0.00,,---,0.00,VWS V14.01,2013-10-20 02:49:00,
2013-10-19 21:50:00,51.1,40.5,29.95,South,180,0.0,0.0,67,0.00,,---,0.00,VWS V14.01,2013-10-20 02:50:00,
2013-10-19 21:54:00,47.9,39.7,29.95,South,180,0.0,0.0,73,0.00,,---,0.00,VWS V14.01,2013-10-20 02:54:00,
2013-10-19 21:59:00,47.7,39.5,29.95,South,180,0.0,0.0,73,0.00,,---,0.00,VWS V14.01,2013-10-20 02:59:00,
2013-10-19 22:00:00,50.5,40.3,29.95,South,180,0.0,0.0,68,0.00,,---,0.00,VWS V14.01,2013-10-20 03:00:00,
2013-10-19 22:04:00,47.4,39.2,29.95,South,180,0.0,0.0,73,0.00,,---,0.00,VWS V14.01,2013-10-20 03:04:00,
2013-10-19 22:09:00,47.2,39.0,29.95,South,180,0.0,0.0,73,0.00,,---,0.00,VWS V14.01,2013-10-20 03:09:00,
2013-10-19 22:10:00,47.2,39.0,29.95,South,180,0.0,0.0,73,0.00,,---,0.00,VWS V14.01,2013-10-20 03:10:00,
2013-10-19 22:14:00,47.0,39.2,29.95,South,180,0.0,0.0,74,0.00,,---,0.00,VWS V14.01,2013-10-20 03:14:00,
2013-10-19 22:19:00,46.8,39.0,29.95,South,180,0.0,0.0,74,0.00,,---,0.00,VWS V14.01,2013-10-20 03:19:00,
2013-10-19 22:20:00,46.8,39.3,29.95,South,180,0.0,0.0,75,0.00,,---,0.00,VWS V14.01,2013-10-20 03:20:00,
2013-10-19 22:24:00,46.6,39.1,29.95,South,180,0.0,0.0,75,0.00,,---,0.00,VWS V14.01,2013-10-20 03:24:00,
2013-10-19 22:29:00,46.4,39.3,29.95,South,180,0.0,0.0,76,0.00,,---,0.00,VWS V14.01,2013-10-20 03:29:00,
2013-10-19 22:30:00,49.0,39.7,29.95,South,180,0.0,0.0,70,0.00,,---,0.00,VWS V14.01,2013-10-20 03:30:00,
2013-10-19 22:34:00,46.3,39.2,29.95,South,180,0.0,0.0,76,0.00,,---,0.00,VWS V14.01,2013-10-20 03:34:00,
2013-10-19 22:39:00,46.1,39.0,29.95,South,180,0.0,0.0,76,0.00,,---,0.00,VWS V14.01,2013-10-20 03:39:00,
2013-10-19 22:40:00,46.1,39.0,29.95,South,180,0.0,0.0,76,0.00,,---,0.00,VWS V14.01,2013-10-20 03:40:00,
2013-10-19 22:44:00,46.0,38.9,29.95,South,180,0.0,0.0,76,0.00,,---,0.00,VWS V14.01,2013-10-20 03:44:00,
2013-10-19 22:49:00,45.8,39.0,29.95,South,180,0.0,0.0,77,0.00,,---,0.00,VWS V14.01,2013-10-20 03:49:00,
2013-10-19 22:50:00,45.8,39.0,29.95,South,180,0.0,0.0,77,0.00,,---,0.00,VWS V14.01,2013-10-20 03:50:00,
2013-10-19 22:54:00,45.7,38.9,29.95,South,180,0.0,0.0,77,0.00,,---,0.00,VWS V14.01,2013-10-20 03:54:00,
2013-10-19 22:59:00,45.6,38.8,29.95,South,180,0.0,0.0,77,0.00,,---,0.00,VWS V14.01,2013-10-20 03:59:00,
2013-10-19 23:00:00,47.6,39.4,29.95,South,180,0.0,0.0,73,0.00,,---,0.00,VWS V14.01,2013-10-20 04:00:00,
2013-10-19 23:01:00,45.5,38.7,29.95,South,180,0.0,0.0,77,0.00,,---,0.00,VWS V14.01,2013-10-20 04:01:00,
2013-10-19 23:02:00,45.5,38.7,29.95,South,180,0.0,0.0,77,0.00,,---,0.00,VWS V14.01,2013-10-20 04:02:00,
2013-10-19 23:07:00,45.3,38.9,29.95,South,180,0.0,0.0,78,0.00,,---,0.00,VWS V14.01,2013-10-20 04:07:00,
2013-10-19 23:10:00,45.2,38.8,29.95,South,180,0.0,0.0,78,0.00,,---,0.00,VWS V14.01,2013-10-20 04:10:00,
2013-10-19 23:12:00,45.1,38.7,29.95,South,180,0.0,0.0,78,0.00,,---,0.00,VWS V14.01,2013-10-20 04:12:00,
2013-10-19 23:17:00,45.0,38.6,29.95,South,180,0.0,0.0,78,0.00,,---,0.00,VWS V14.01,2013-10-20 04:17:00,
2013-10-19 23:20:00,44.9,38.5,29.95,South,180,0.0,0.0,78,0.00,,---,0.00,VWS V14.01,2013-10-20 04:20:00,
2013-10-19 23:22:00,44.8,38.4,29.95,South,180,0.0,0.0,78,0.00,,---,0.00,VWS V14.01,2013-10-20 04:22:00,
2013-10-19 23:27:00,44.6,38.2,29.95,South,180,0.0,0.0,78,0.00,,---,0.00,VWS V14.01,2013-10-20 04:27:00,
2013-10-19 23:30:00,44.5,38.4,29.95,South,180,0.0,0.0,79,0.00,,---,0.00,VWS V14.01,2013-10-20 04:30:00,
2013-10-19 23:32:00,44.5,38.4,29.95,South,180,0.0,0.0,79,0.00,,---,0.00,VWS V14.01,2013-10-20 04:32:00,
2013-10-19 23:37:00,44.3,38.2,29.95,South,180,0.0,0.0,79,0.00,,---,0.00,VWS V14.01,2013-10-20 04:37:00,
2013-10-19 23:40:00,44.2,38.4,29.94,South,180,0.0,0.0,80,0.00,,---,0.00,VWS V14.01,2013-10-20 04:40:00,
2013-10-19 23:42:00,44.2,38.4,29.94,South,180,0.0,0.0,80,0.00,,---,0.00,VWS V14.01,2013-10-20 04:42:00,
2013-10-19 23:47:00,44.1,38.3,29.94,South,180,0.0,0.0,80,0.00,,---,0.00,VWS V14.01,2013-10-20 04:47:00,
2013-10-19 23:50:00,44.0,38.5,29.94,South,180,0.0,0.0,81,0.00,,---,0.00,VWS V14.01,2013-10-20 04:50:00,
2013-10-19 23:52:00,44.0,38.5,29.94,South,180,0.0,0.0,81,0.00,,---,0.00,VWS V14.01,2013-10-20 04:52:00,
2013-10-19 23:57:00,43.8,38.4,29.94,South,180,0.0,0.0,81,0.00,,---,0.00,VWS V14.01,2013-10-20 04:57:00,